EDT,Max TemperatureF,Mean TemperatureF,Min TemperatureF,Max Dew PointF,MeanDew PointF,Min DewpointF,Max Humidity, Mean Humidity, Min Humidity, Max Sea Level PressureIn, Mean Sea Level PressureIn, Min Sea Level PressureIn, Max VisibilityMiles, Mean VisibilityMiles, Min VisibilityMiles, Max Wind SpeedMPH, Mean Wind SpeedMPH, Max Gust SpeedMPH,PrecipitationIn, CloudCover, Events, WindDirDegrees
2013-9-1,87,79,70,73,70,68,97,79,61,29.92,29.87,29.83,10,10,7,21,8,25,0.01,6,Rain-Thunderstorm,237
2013-9-2,86,77,68,72,69,66,97,79,61,29.97,29.89,29.83,10,9,2,17,7,21,0.11,6,Rain,225
2013-9-3,87,77,66,72,67,64,100,78,55,30.01,29.93,29.84,10,8,0,23,4,30,1.19,6,Fog-Rain-Thunderstorm,2
2013-9-4,85,74,63,65,63,61,100,72,44,30.12,30.06,30.00,10,10,9,9,4,13,0.00,2,,10
2013-9-5,85,74,62,65,61,54,93,64,34,30.18,30.12,30.09,10,10,9,10,4,15,0.00,4,,33
2013-9-6,86,74,62,65,62,58,93,67,40,30.17,30.11,30.06,10,10,10,13,5,22,0.00,2,,45
2013-9-7,85,73,61,67,64,60,93,72,51,30.14,30.06,29.99,10,8,0,13,4,17,0.00,2,Fog,225
2013-9-8,88,77,66,69,66,64,93,72,51,30.01,29.98,29.94,10,9,6,7,2,10,0.00,2,,112
2013-9-9,89,78,66,69,67,64,100,72,44,30.09,30.05,30.00,10,6,0,17,3,21,0.00,3,Fog,195
2013-9-10,90,79,67,69,67,65,93,70,46,30.23,30.16,30.10,10,9,5,17,4,22,T,2,Rain-Thunderstorm,62
2013-9-11,89,79,68,70,68,65,97,72,46,30.22,30.15,30.09,10,9,7,10,2,13,0.00,4,,298
2013-9-12,85,76,67,72,69,66,100,83,65,30.08,30.00,29.89,10,8,2,25,5,32,0.31,6,Rain-Thunderstorm,218
2013-9-13,78,68,58,66,61,49,100,69,38,29.99,29.92,29.88,10,6,0,15,6,18,0.00,5,Fog,12
2013-9-14,76,64,52,57,51,49,90,66,41,30.08,30.03,29.97,10,10,10,16,6,20,0.00,1,,33
2013-9-15,83,68,52,63,58,52,93,69,45,30.17,30.11,30.08,10,10,7,13,2,18,0.00,3,,271
2013-9-16,84,73,61,62,60,57,93,69,45,30.16,30.13,30.10,10,10,8,15,4,18,0.00,6,,24
2013-9-17,79,71,63,65,61,58,87,72,56,30.21,30.16,30.12,10,10,10,12,5,14,0.00,7,,28
2013-9-18,76,70,63,65,61,59,93,76,58,30.21,30.16,30.12,10,10,9,9,4,12,T,7,,19
2013-9-19,83,72,60,66,62,59,100,76,51,30.20,30.14,30.04,10,6,0,10,2,16,0.00,4,Fog,266
2013-9-20,85,74,62,65,63,60,100,74,47,30.06,29.99,29.87,10,9,4,14,4,21,T,5,,225
2013-9-21,72,67,62,68,64,61,100,87,73,29.87,29.79,29.74,10,6,1,15,4,21,2.32,8,Rain,259
2013-9-22,76,65,54,60,55,51,100,72,43,29.92,29.87,29.83,10,10,7,14,6,17,0.00,2,Fog,29
2013-9-23,79,66,53,61,56,51,93,71,48,30.02,29.97,29.92,10,10,10,10,4,14,0.00,1,,27
2013-9-24,79,68,57,64,60,57,100,76,52,30.06,29.98,29.89,10,7,0,13,4,15,0.00,6,Fog,22
2013-9-25,70,68,65,66,65,62,93,89,84,29.90,29.86,29.82,10,5,0,7,2,7,0.48,8,Rain,360
2013-9-26,79,69,59,65,63,59,100,76,52,30.02,29.93,29.87,10,7,2,8,4,12,0.00,6,,354
2013-9-27,80,68,55,60,57,49,100,68,35,30.17,30.09,30.03,10,6,0,8,2,12,0.00,3,Fog,61
2013-9-28,78,67,56,60,57,56,93,74,54,30.22,30.14,30.09,10,9,1,9,2,13,0.00,4,Fog,37
2013-9-29,71,66,61,61,58,55,90,74,57,30.16,30.09,30.01,10,10,10,9,2,12,0.00,7,,235
2013-9-30,77,66,54,61,58,54,100,75,50,30.08,30.04,29.99,10,8,2,13,2,15,0.00,4,Fog,296